Вернуться в каталог

SL-8 R/B

АктивенPO
NORAD 13128·ROCKET BODY·🇷🇺 Russia

Запущен Apr 8, 1982 с Plesetsk Cosmodrome

Loading…

Ближайшие Пролёты (ближайшие 24 часа)

TLE

СвежийSource: Space-Track

Эпоха: Sep 14, 2026, 08:38 UTC

1 13128U 82030B   26257.35978542  .00000136  00000-0  12432-3 0  9998
2 13128  82.9230  52.4876 0028643 356.8725  22.6662 13.76002146229683

Отслеживайте SL-8 R/B в реальном времени с AllMySat

Download on the App Store